Flag Weather past 2 weeks in Makkah, Saudi Arabia

Now
75 °F

Clear.


Feels Like: 76 °F
Forecast: 69 / 82 °F
Wind: No wind

Location: Mecca Airport

Current Time: Nov 24, 2014 at 3:05:25 AM

Latest Report: Nov 24, 2014 at 2:00 AM


Visibility: 10 mi

Pressure: 29.83 "Hg

Humidity: 78%

Dew point: 68 °F

Location of MakkahLocation

Historic Weather in Makkah — Graph

°F

Makkah temperature yesterday

Maximum temperature yesterday: 90 °F (at 2:00 PM)
Minimum temperature yesterday: 75 °F (at 2:00 AM)
Average temperature yesterday: 81 °F

Past Weeks' High & Low Weather Summary

 TemperatureHumidityPressure
High100 °F (Nov 9, 1:00 PM)94% (Nov 16, 4:00 PM)29.98 "Hg (Nov 16, 4:00 PM)
Low70 °F (Nov 16, 4:00 PM)21% (Nov 10, 2:00 PM)29.77 "Hg (Nov 12, 3:00 PM)
Average83 °F64%29.89 "Hg
* Reported Nov 9 2:00 AM — Nov 24 2:00 AM, Makkah, Weather by CustomWeather, © 2014

Note: Actual official high and low records may vary slightly from our data, if they occured in-between our weather recording intervals... More about our weather records

Advertising

Makkah weather history for previous 24 hours

 ConditionsComfort  
Time TempWeatherWind HumidityBarometerVisibility
2:00 AM
Nov 24
75 °FClear.No wind78%29.83 "Hg10 mi
1:00 AM77 °FClear.No wind74%29.83 "Hg10 mi
12:00 AM77 °FClear.No wind74%29.86 "Hg10 mi
11:00 PM
Nov 23
77 °FClear.No wind74%29.86 "Hg10 mi
10:00 PM77 °FClear.No wind79%29.86 "Hg10 mi
9:00 PM79 °FClear.No wind79%29.86 "Hg10 mi
8:00 PM81 °FClear.No wind66%29.86 "Hg10 mi
7:00 PM82 °FPassing clouds.No wind62%29.86 "HgN/A
6:00 PM82 °FPassing clouds.No wind66%29.83 "HgN/A
5:00 PM86 °FScattered clouds.2 mph55%29.83 "HgN/A
4:00 PM88 °FScattered clouds.5 mph52%29.83 "HgN/A
3:00 PM90 °FPartly sunny.5 mph52%29.86 "HgN/A
2:00 PM90 °FPartly sunny.2 mph52%29.86 "HgN/A
1:00 PM88 °FScattered clouds.No wind59%29.86 "HgN/A
12:00 PM88 °FScattered clouds.No wind59%29.92 "HgN/A
11:00 AM86 °FScattered clouds.No wind62%29.92 "HgN/A
10:00 AM82 °FScattered clouds.No wind66%29.95 "HgN/A
9:00 AM77 °FPassing clouds.No wind83%29.95 "HgN/A
8:00 AM75 °FPassing clouds.No wind83%29.92 "HgN/A
7:00 AM75 °FPassing clouds.No wind89%29.89 "HgN/A
6:00 AM75 °FPassing clouds.No wind83%29.89 "HgN/A
5:00 AM75 °FPassing clouds.No wind83%29.86 "HgN/A
4:00 AM75 °FPassing clouds.No wind89%29.86 "HgN/A
3:00 AM75 °FPassing clouds.No wind89%29.89 "HgN/A
Weather by CustomWeather, © 2014

See weather overviewHow to use our weather pages